Terminal Aerodrome Forecast
Issued by NWS Boston, MA

Home | Current Version | Previous Version | Text Only | Print | Product List | Glossary On
Versions: 1 2 3 4 5 6 7 8 9 10 11 12 13 14 15 16 17 18 19 20 21 22 23 24 25 26 27 28 29 30 31 32 33 34 35 36 37 38 39 40 41 42 43 44 45
000
FTUS41 KBOX 050304 AAB
TAFBDL
TAF AMD
KBDL 050304Z 0503/0606 VRB03KT P6SM BKN060 OVC120
     FM050600 30004KT 3SM -SN BR OVC025
     FM050900 31005KT P6SM OVC050
     FM060300 32007KT P6SM SCT250=

USA.gov is the U.S. government's official web portal to all federal, state and local government web resources and services.